Location: Kelshall
(52.0000°N, 0.0500°W)
Time: 10:37:13
(UTC+00:00)

Okean 1 Rocket - Pass Details

Date: 20 January 2021
Orbit: 605 x 635 km, 82.5° (Epoch: 05 March)

Event Time Altitude Azimuth Distance (km) Brightness Sun altitude
Exits shadow 06:10:51 13° 334° (NNW) 1,808 5.1 -15.7°
Drops below altitude 10° 06:11:42 10° 343° (NNW) 2,026 5.4 -15.6°
Sets 06:14:32 0° 1° (N) 2,934 6.4 -15.2°
